Location: Aranbee
(34.0885°N, 118.2342°W)
Time: 03:06:56
(UTC+00:00)

Courier 1B - Pass Details

Date: 28 November 2020
Orbit: 962 x 1209 km, 28.3° (Epoch: 25 January)

Event Time Altitude Azimuth Distance (km) Brightness Sun altitude
Exits shadow 13:08:14 - 234° (SW) 3,198 9.8 -18.4°
Reaches altitude 10° 13:09:03 10° 228° (SW) 3,118 9.8 -18.2°
Maximum altitude 13:11:10 11° 212° (SSW) 3,032 9.9 -17.8°
Drops below altitude 10° 13:13:18 10° 196° (SSW) 3,132 10.1 -17.3°
Sets 13:18:53 0° 164° (SSE) 4,095 11.2 -16.2°
